Weather in Guadalajara

Mexico     20°37′53″N   103°20′47″W
temp.,
°C
wind,
m/s
gust,
m/s
humid.,
%
clouds,
%
prec.,
mm/h
press.,
hPa
HPBL,
m
24 january, sun
sun2400:00+16wsw113290 0.0 101542
03:00+15wnw1141100 0.0 101531
06:00+13n014992 0.0 101528
09:00+16ese1143100 0.0 101783
12:00+26wsw1223100 0.0 1015950
15:00+27wsw3516100 0.0 10112805
18:00+25sw371595 0.0 1012757
21:00+17wnw233112 0.0 101580
25 january, mon
mon2500:00+14w114043 0.0 101633
03:00+12sse00480 0.0 101529
06:00+11se00540 0.0 101528
09:00+15se00440 0.0 1016136
12:00+25wsw26200 0.0 10141557
15:00+26wsw48150 0.0 10102620
18:00+24sw47180 0.0 1011915
21:00+17w23330 0.0 101589
26 january, tue
tue2600:00+14sw11450 0.0 101635
03:00+12wnw00532 0.0 101533
06:00+10ene00596 0.0 101529
09:00+15se114614 0.0 1017164
12:00+25sw242120 0.0 10141285
15:00+26wsw471573 0.0 10112365
18:00+24wsw362086 0.0 1011406
21:00+16wnw123398 0.0 101563
27 january, wed
wed2700:00+14ssw004099 0.0 101630
03:00+13ene1144100 0.0 101532
06:00+11e114975 0.0 101629
09:00+16e113986 0.0 1017128
12:00+27se122055 0.0 1015855
15:00+30ssw121458 0.0 10101649
18:00+26sw011738 0.0 1010157
21:00+18w01260 0.0 101535
28 january, thu
thu2800:00+16se12330 0.0 101731
03:00+14ene12400 0.0 101829
06:00+13ene12660 0.0 101959
09:00+16ne24630 0.0 1021343
12:00+24ene23380 0.0 10181117
15:00+29ne12250 0.0 10141912
18:00+25nnw22290 0.0 1014344
21:00+19nne11410 0.0 101827